Delta Virtual Airport Information Service

Honolulu International Airport

ICAO: PHNL Country: United States
Latitude: 21.3187 Longitude: -157.922
Latest Arrival : DAC3058 (PANC-PHNL) Latest Departure : DAL1887 (2B) (PHNL-KSEA)


WX CaptureLIVE
Data provided by noaa.gov | Fetched at 11:22:13

METAR : PHNL 151553Z 04004KT 10SM FEW025 BKN250 24/17 A3007

TAF : PHNL 151504Z 1515/1618 02005KT P6SM FEW025 OVC300 FM152100 06014G22KT P6SM FEW025 FEW045 BKN250 FM160500 06009KT P6SM SCT025 SCT045 SCT250 FM160800 07007KT P6SM FEW025 FEW045


Runway Data for PHNL
Data provided by openaviationdata.com

Runway ID Mag Var Hdg Length Elevation Surface ILS Freq ILS Id ILS Slope
04L 11 41° 6958 ft 13 ft Asphalt -- -- --
04R 11 41° 9009 ft 13 ft Asphalt 110.5 IIUM 3
08L 11 79° 12294 ft 13 ft Asphalt 111.7 IHNL 3
08R 11 79° 11995 ft 13 ft Asphalt -- -- --
22L 11 221° 9009 ft 13 ft Asphalt -- -- --
22R 11 221° 6958 ft 13 ft Asphalt -- -- --
26L 11 259° 11995 ft 13 ft Asphalt 109.1 IEPC 0
26R 11 259° 12294 ft 13 ft Asphalt -- -- --

Honolulu International Airport, United States
Use only for reference purposes



Not for navigational purposes.